Regional Weather Roundup
Issued by NWS

Home | Current Version | Previous Version | Graphics & Text | Print | Product List | Glossary On
Versions: 1 2 3 4 5 6 7 8 9 10 11 12 13 14 15 16 17 18 19 20 21 22 23 24 25 26 27 28 29 30 31 32 33 34 35 36 37 38 39 40 41 42 43 44 45 46 47 48 49 50
000
ASUS45 KCYS 212110
RWRWY

WYOMING REGIONAL WEATHER ROUNDUP
NATIONAL WEATHER SERVICE CHEYENNE WY
200 PM MST SUN DEC 21 2014

NOTE:  "FAIR" INDICATES FEW OR NO CLOUDS BELOW 12,000 FEET
WITH NO SIGNIFICANT WEATHER AND/OR OBSTRUCTIONS TO VISIBILITY.

WYZ001-212200-
YELLOWSTONE NATIONAL PARK

CITY           SKY/WX    TMP DP  RH WIND       PRES   REMARKS
LK YELLOWSTONE   N/A     30  24  78 W12G21    29.63R WCI  20
W YELLOWSTONE  NOT AVBL

$$
WYZ002>013-054>058-071-098>099-212200-
NORTHERN WYOMING

CITY           SKY/WX    TMP DP  RH WIND       PRES   REMARKS
JACKSON        NOT AVBL
CODY           CLOUDY    37  30  75 N14G23    29.49R WCI  29
GREYBULL       CLOUDY    37  28  70 NW13      29.51R WCI  29
WORLAND        FAIR      34  27  75 CALM      29.48S
SHERIDAN       FAIR      44  28  53 N18G29    29.40R
BUFFALO          N/A     47  27  45 NE8G18    29.43R
GILLETTE       FAIR      43  34  70 SW8       29.41S
HULETT           N/A    N/A N/A N/A MISG        N/A
NEWCASTLE      LGT RAIN  37  30  75 NW6       29.46S WCI  33

$$
WYZ014>020-022>026-101>103-212200-
CENTRAL WYOMING

CITY           SKY/WX    TMP DP  RH WIND       PRES   REMARKS
BIG PINEY      LGT SNOW  33  32  96 SW12      29.66S FOG     WCI  24
PINEDALE       FLURRIES  34  32  93 W13       29.64R WCI  25
DUBOIS         NOT AVBL
LANDER         FAIR      35  27  72 SW8       29.52R WCI  29
RIVERTON       CLOUDY    37  29  72 NW15      29.54S WCI  28
CASPER         FAIR      39  30  70 SW14      29.48F WCI  31
DOUGLAS        FAIR      46  30  53 W22G31    29.46S

$$
WYZ021-027>030-104>119-212200-
SOUTHERN WYOMING

CITY           SKY/WX    TMP DP  RH WIND       PRES   REMARKS
EVANSTON       LGT SNOW  35  33  92 SW22G30   29.82F FOG     WCI  23
KEMMERER       LGT SNOW  34  32  93 SW38G45   29.71F WCI  19
FORT BRIDGER   CLOUDY    38  36  91 W32G43    29.79F WCI  25
ROCK SPRINGS   FAIR      38  31  76 W37G51    29.67F WCI  25
DIXON          CLOUDY    35  30  85 S24G31    29.72F WCI  22
RAWLINS        CLOUDY    36  31  82 W23G30    29.62F WCI  24
SARATOGA       CLOUDY    36  30  80 W26G40    29.62S WCI  23
LARAMIE        CLOUDY    37  26  64 W31G39    29.54F WCI  24
CHEYENNE       FAIR      44  28  53 W25G40    29.51S
TORRINGTON     FAIR     N/A N/A N/A W18G30    29.42F
PINE BLUFFS    CLOUDY    45  30  57 NW10G20   29.49F

$$



USA.gov is the U.S. government's official web portal to all federal, state and local government web resources and services.